Probability
0 0 0 0 0 0 0 0 0 0 0 0 0 0 0 0 0 0 0 0 0 0 0 0 0 0 0 0 0 0 0 0 0 0 0 0 0 0 0 0 0 0 0
0 0 0 0 0 0 0 0 0 0 0 0 0 0 0 0 0 0 0 0 0 0 0 0 0 0 0 0 0 0 0 0 0 0 0 0 0 0 0 0 0 0 0
0 0 0 0 0 0 0 0 0 0 0 0 0 0 0 0 0 0 0 0 0 0 0 0 0 0 0 0 0 0 0 0 0 0 0 0 0 0 0 0 0 0 0
0 0 0 0 0 0 0 0 0 0 0 0 0 0 0 0 0 0 0 0 0 0 0 0 0 0 0 0 0 0 0 0 0 0 0 0 0 0 0 0 0 0 0
0 0 0 0 0 0 0 0 0 0 0 0 0 0 0 0 0 0 0 0 0 0 0 0 0 0 0 0 0 0 0 0 0 0 0 0 0 0 0 0 0 0 0
0 0 0 0 0 0 0 0 0 0 0 0 0 0 0 0 0 0 0 0 0 0 0 0 0 0 0 0 0 0 0 0 0 0 0 0 0 0 0 0 0 0 0
0 0 0 0 0 0 0 0 0 0 0 0 0 0 0 0 0 0 0 0 0 0 0 0 0 0 0 0 0 0 0 0 0 0 0 0 0 0 0 0 0 0 0
0 0 0 0 0 0 0 0 0 0 0 0 0 0 0 0 0 0 0 0 0 0 0 0 0 0 0 0 0 0 0 0 0 0 0 0 0 0 0 0 0 0 0
0 0 0 0 0 0 0 0 0 0 0 0 0 0 0 0 0 0 0 0 0 0 0 0 0 0 0 0 0 0 0 0 0 0 0 0 0 0 0 0 0 0 0
0 0 0 0 0 0 0 0 0 0 0 0 0 0 0 0 0 0 0 0 0 0 0 0 0 0 0 0 0 0 0 0 0 0 0 0 0 0 0 0 0 0 0
0 0 0 0 0 0 0 0 0 0 0 0 0 0 0 0 0 0 0 0 0 0 0 0 0 0 0 0 0 0 0 0 0 0 0 0 0 0 0 0 0 0 0
0 0 0 0 0 0 0 0 0 0 0 0 0 0 0 0 0 0 0 0 0 0 0 0 0 0 0 0 0 0 0 0 0 0 0 0 0 0 0 0 0 0 0
0 0 0 0 0 0 0 0 0 0 0 0 0 0 0 0 0 0 0 0 0 0 0 0 0 0 0 0 0 0 0 0 0 0 0 0 0 0 0 0 0 0 0
0 0 0 0 0 0 0 0 0 0 0 0 0 0 0 0 0 0 0 0 0 0 0 0 0 0 0 0 0 0 0 0 0 0 0 0 0 0 0 0 0 0 0
0 0 0 0 0 0 0 0 0 0 0 0 0 0 0 0 0 0 0 0 0 0 0 0 0 0 0 0 0 0 0 0 0 0 0 0 0 0 0 0 0 0 0
0 0 0 0 0 0 0 0 0 0 0 0 0 0 0 0 0 0 0 0 0 0 0 0 0 0 0 0 0 0 0 0 0 0 0 0 0 0 0 0 0 0 0
0 0 0 0 0 0 0 0 0 0 0 0 0 0 0 0 0 0 0 0 0 0 0 0 0 0 0 0 0 0 0 0 0 0 0 0 0 0 0 0 0 0 0
0 0 0 0 0 0 0 0 0 0 0 0 0 0 0 0 0 0 0 0 0 0 0 0 0 0 0 0 0 0 0 0 0 0 0 0 0 0 0 0 0 0 0
0 0 0 0 0 0 0 0 0 0 0 0 0 0 0 0 0 0 0 0 0 0 0 0 0 0 0 0 0 0 0 0 0 0 0 0 0 0 0 0 0 0 0
0 0 0 0 0 0 0 0 0 0 0 0 0 0 0 0 0 0 0 0 0 0 0 0 0 0 0 0 0 0 0 0 0 0 0 0 0 0 0 0 0 0 0
0 0 0 0 0 0 0 0 0 0 0 0 0 0 0 0 0 0 0 0 0 0 0 0 0 0 0 0 0 0 0 0 0 0 0 0 0 0 0 0 0 0 0
0 0 0 0 0 0 0 0 0 0 0 0 0 0 0 0 0 0 0 0 0 0 0 0 0 0 0 0 0 0 0 0 0 0 0 0 0 0 0 0 0 0 0
0 0 0 0 0 0 0 0 0 0 0 0 0 0 0 0 0 0 0 0 0 0 0 0 0 0 0 0 0 0 0 0 0 0 0 0 0 0 0 0 0 0 0
0 0 0 0 0 0 0 0 0 0 0 0 0 0 0 0 0 0 0 0 0 0 0 0 0 0 0 0 0 0 0 0 0 0 0 0 0 0 0 0 0 0 0
0 0 0 0 0 0 0 0 0 0 0 0 0 0 0 0 0 0 0 0 0 0 0 0 0 0 0 0 0 0 0 0 0 0 0 0 0 0 0 0 0 0 0
0 0 0 0 0 0 0 0 0 0 0 0 0 0 0 0 0 0 0 0 0 0 0 0 0 0 0 0 0 0 0 0 0 0 0 0 0 0 0 0 0 0 0
Wind_Speed
5 4 5 6 5 5 5 5 5 4 4 2 2 1 0 1 1 1 1 1 2 2 1 1 2 1 1 1 1 0 1 2 1 1 2 2 2 2 1 1 0 1 1
4 4 5 6 6 6 6 5 6 5 4 2 2 1 1 0 1 1 2 2 2 2 1 1 1 1 1 2 1 1 0 1 1 1 1 2 3 3 2 1 1 1 1
8 7 6 6 6 6 7 6 6 5 4 3 2 2 2 2 1 1 2 2 2 2 2 1 1 1 1 1 1 0 1 0 1 1 2 2 1 2 2 2 2 1 1
7 7 7 7 7 7 6 6 6 5 4 4 4 4 2 2 2 1 2 3 3 2 2 1 1 1 1 1 1 0 1 1 0 1 1 1 2 1 1 2 2 1 1
7 8 8 8 7 6 6 5 5 4 4 4 4 4 2 2 1 1 2 2 3 3 2 2 1 1 1 2 1 0 1 1 1 1 0 1 1 1 1 0 2 2 1
6 5 4 4 4 4 5 5 5 4 4 4 4 4 4 3 1 1 2 2 2 2 3 2 2 1 1 2 1 1 1 1 1 1 1 1 1 1 1 1 0 1 1
6 6 6 6 6 6 6 6 6 5 4 4 4 4 4 4 3 3 2 2 2 2 3 2 2 1 2 1 1 1 1 2 2 1 1 1 1 1 1 1 1 0 1
5 6 7 7 7 7 7 6 7 5 5 5 5 4 4 3 3 3 2 2 2 3 3 2 2 2 2 1 0 0 1 1 2 2 2 1 1 1 1 2 2 1 1
5 5 5 6 7 8 8 8 7 6 5 5 4 4 4 4 3 3 2 2 3 3 2 2 2 2 1 1 0 0 1 1 1 2 2 1 1 1 1 1 2 3 1
3 3 4 5 6 6 6 6 7 7 6 5 5 4 4 4 3 2 3 3 3 2 2 2 2 1 1 1 0 0 0 1 1 1 1 1 1 1 1 1 1 2 2
3 3 4 4 4 4 5 5 6 5 5 5 5 4 4 4 3 3 3 3 2 2 2 2 2 1 1 1 0 1 0 1 1 1 1 1 1 1 1 1 1 1 2
2 2 2 2 2 4 4 5 6 6 6 5 5 5 4 3 4 4 4 3 3 2 2 2 1 1 1 1 1 1 1 1 1 1 1 1 1 1 1 1 2 2 2
2 1 0 1 2 4 4 5 6 6 5 5 5 5 4 5 5 5 4 3 3 2 2 2 2 2 2 2 2 2 1 1 2 2 2 2 1 1 1 2 2 2 2
2 2 2 2 2 3 4 4 5 5 5 5 5 6 6 6 6 5 4 3 3 3 2 2 2 2 2 2 2 2 2 2 2 2 2 2 3 3 3 2 2 2 2
4 3 3 2 2 2 3 3 4 4 5 5 6 7 6 5 5 4 4 3 3 4 3 2 2 2 2 2 2 2 2 2 2 2 2 3 4 5 4 3 3 3 2
4 4 4 3 3 3 3 3 4 4 4 6 7 5 4 5 5 5 4 4 4 3 3 3 3 3 3 4 4 4 2 2 2 2 2 2 2 4 5 5 6 6 4
4 4 4 4 4 4 3 4 4 3 4 5 5 4 5 5 5 5 4 5 5 4 4 4 3 4 5 6 5 5 3 2 2 2 2 2 1 1 1 2 2 4 5
5 5 4 4 4 2 2 2 1 2 4 4 5 4 5 5 5 4 5 5 4 4 4 4 4 4 5 6 5 5 3 2 2 2 2 2 2 2 2 2 1 1 2
4 4 4 3 2 2 1 0 0 1 2 4 5 5 5 6 5 6 6 5 4 5 5 4 5 5 5 6 5 5 2 2 2 2 2 2 2 3 2 2 2 1 1
4 4 4 2 2 2 0 1 1 1 3 5 6 5 5 6 6 7 6 4 4 5 5 5 5 5 5 6 7 6 3 2 2 2 2 3 4 4 4 3 3 2 2
5 4 3 3 3 2 0 1 1 4 5 4 4 4 5 6 6 5 4 4 4 4 5 5 5 5 6 6 7 8 4 4 3 2 2 2 4 4 4 4 3 4 3
6 5 4 4 3 2 1 2 4 5 3 3 3 4 4 5 4 5 4 4 4 4 5 4 4 4 5 6 7 9 8 7 4 4 3 3 4 4 4 3 3 4 4
5 5 4 5 4 2 2 4 6 4 3 3 4 4 4 4 4 4 5 4 4 4 5 5 5 4 4 5 8 9 9 10 6 4 5 5 4 3 2 3 4 4 3
5 5 4 5 6 4 4 5 5 3 3 4 5 4 3 4 4 4 4 5 5 5 6 6 6 5 4 4 4 4 5 7 6 3 4 5 5 3 3 3 2 2 3
4 4 4 5 6 6 5 5 4 3 4 5 5 4 4 4 4 4 5 6 7 7 8 7 7 6 7 8 10 7 5 5 5 4 2 2 2 2 2 1 1 1 2
4 4 5 6 6 6 7 6 4 4 4 5 5 4 4 4 4 4 4 6 7 10 12 11 9 8 10 9 11 12 11 10 11 7 4 4 4 4 4 4 3 2 2
Wind_Direction
225 194 184 170 157 160 165 164 156 154 140 129 129 120 120 329 337 330 334 338 334 342 348 339 339 352 358 329 328 350 12 357 347 42 9 356 359 2 351 348 10 357 356
191 182 177 169 169 173 173 170 170 165 169 157 148 152 148 216 265 307 321 328 335 330 324 324 315 324 336 350 358 30 55 356 20 106 90 7 353 349 0 2 43 17 36
193 187 181 181 176 181 182 181 179 172 172 148 112 83 58 29 6 334 314 316 319 317 311 302 303 307 285 291 300 279 133 109 351 43 135 136 217 311 337 356 15 16 31
192 188 185 188 191 192 181 177 173 169 166 155 154 153 158 189 231 247 278 304 313 312 309 308 311 301 281 272 275 204 169 142 51 352 28 117 163 147 346 340 351 11 28
195 194 194 194 190 180 174 173 166 169 169 172 171 160 167 197 235 274 294 307 314 314 311 303 304 297 279 270 264 222 174 160 161 166 124 66 58 91 134 322 337 355 346
197 198 193 179 176 166 165 164 168 182 181 181 179 176 181 189 211 263 285 302 308 309 313 304 299 290 282 273 251 214 188 185 168 165 154 150 142 156 132 161 320 331 318
185 188 187 187 186 183 180 176 177 190 188 184 190 193 192 191 206 224 238 266 292 294 299 307 296 292 283 272 245 210 209 190 176 182 191 192 191 160 149 142 158 19 324
195 199 199 195 193 193 188 185 189 196 191 193 202 200 197 196 215 223 224 239 251 265 283 295 291 292 299 300 253 224 228 197 197 202 195 195 209 171 167 161 146 104 3
210 210 204 198 195 196 196 193 192 199 200 202 201 204 207 209 220 230 232 245 256 267 281 290 289 297 303 314 312 264 250 201 205 206 199 200 217 187 184 168 157 151 149
244 228 213 207 205 205 203 193 193 199 201 198 201 208 214 217 218 218 239 252 264 271 285 289 285 292 295 303 40 286 267 152 205 201 193 216 218 194 180 173 165 155 157
244 236 228 215 203 195 191 194 198 200 205 205 205 209 215 215 215 223 237 244 253 262 259 260 265 277 289 290 181 239 207 178 238 240 207 230 207 187 187 172 162 166 159
257 244 230 203 198 201 201 200 200 204 211 206 203 212 216 213 220 233 241 234 240 249 244 242 245 257 268 265 218 230 216 207 237 245 220 243 201 186 184 175 179 185 183
325 336 348 220 223 216 211 209 208 212 211 199 204 212 215 217 226 233 237 228 228 241 243 224 231 246 251 250 242 220 218 219 234 232 222 237 207 217 203 193 194 197 183
354 341 306 273 255 233 219 216 220 214 206 199 205 215 219 220 226 228 228 225 222 227 230 225 229 240 244 238 237 222 222 228 237 235 232 232 218 223 214 203 201 186 170
356 334 302 282 269 260 243 227 227 215 202 201 213 223 222 220 223 226 225 224 222 224 223 222 235 249 244 235 217 209 213 220 240 253 248 241 234 227 213 198 192 179 175
332 323 318 303 277 259 254 243 236 219 197 205 221 223 215 213 218 223 220 220 226 227 216 219 225 242 252 255 219 197 198 210 218 248 267 263 255 253 238 221 201 185 180
324 317 300 279 266 254 241 240 240 214 198 214 224 219 214 218 221 219 213 220 225 221 223 229 224 237 255 258 230 204 184 202 220 227 248 268 269 265 238 234 212 208 207
325 319 311 302 288 277 261 258 242 202 208 222 230 223 215 224 224 216 220 225 220 215 222 230 228 233 251 252 229 204 183 193 222 229 229 236 259 254 200 181 173 215 235
301 299 296 287 298 310 300 288 278 228 225 236 238 233 220 223 222 222 226 224 216 218 217 220 219 223 247 249 224 193 175 196 234 245 240 228 239 251 193 160 173 201 284
321 319 322 330 335 320 341 116 262 253 251 249 245 236 222 219 224 228 227 219 215 222 218 222 219 219 232 241 223 195 181 198 228 250 257 247 237 237 198 175 178 198 235
332 337 346 347 323 319 79 246 257 252 256 263 259 242 229 226 226 227 225 218 216 219 218 223 225 222 226 233 223 200 187 199 208 222 241 249 234 218 203 185 191 206 185
348 350 348 334 330 331 296 280 268 269 280 271 264 255 243 238 231 220 222 214 207 214 219 223 234 233 229 223 224 212 203 196 194 212 221 224 207 195 188 181 180 162 139
341 341 335 326 326 321 285 271 277 289 287 275 266 263 259 245 231 216 218 214 210 216 220 217 228 238 229 226 223 216 210 202 198 208 202 190 180 171 169 159 151 139 129
332 333 333 327 320 314 295 277 288 285 272 268 269 263 254 254 242 229 217 214 214 220 221 218 225 231 229 223 216 213 208 199 197 196 178 163 150 139 128 119 126 129 144
315 318 314 307 305 307 302 299 295 278 272 271 269 266 253 246 241 234 229 226 225 219 218 220 214 212 224 226 210 199 200 194 189 163 142 140 147 152 144 127 119 124 132
309 313 309 304 305 308 305 305 295 276 269 274 269 261 257 249 240 240 259 254 248 245 238 231 218 222 223 215 205 205 203 193 176 159 169 180 182 183 181 175 168 162 164